Regional Weather Roundup
Issued by NWS

Home | Current Version | Previous Version | Graphics & Text | Print | Product List | Glossary On
Versions: 1 2 3 4 5 6 7 8 9 10 11 12 13 14 15 16 17 18 19 20 21 22 23 24 25 26 27 28 29 30 31 32 33 34 35 36 37 38 39 40 41 42 43 44 45 46 47 48 49 50
000
ASUS45 KCYS 131310
RWRWY

WYOMING REGIONAL WEATHER ROUNDUP
NATIONAL WEATHER SERVICE CHEYENNE WY
700 AM MDT SUN JUL 13 2014

NOTE:  "FAIR" INDICATES FEW OR NO CLOUDS BELOW 12,000 FEET
WITH NO SIGNIFICANT WEATHER AND/OR OBSTRUCTIONS TO VISIBILITY.

WYZ001-131400-
YELLOWSTONE NATIONAL PARK

CITY           SKY/WX    TMP DP  RH WIND       PRES   REMARKS
LK YELLOWSTONE   N/A     44  43  96 CALM      30.55S
W YELLOWSTONE  NOT AVBL

$$
WYZ002>013-054>058-071-098>099-131400-
NORTHERN WYOMING

CITY           SKY/WX    TMP DP  RH WIND       PRES   REMARKS
JACKSON        CLEAR     46  46 100 CALM      30.46R
CODY           SUNNY     61  52  72 CALM      30.33S
GREYBULL       NOT AVBL
WORLAND        NOT AVBL
SHERIDAN       NOT AVBL
BUFFALO        SUNNY     64  46  52 W5        30.31R
GILLETTE       SUNNY     60  53  77 CALM      30.27S
HULETT         FAIR      57  50  77 MISG      30.28
NEWCASTLE      FAIR      63  54  72 CALM      30.28

$$
WYZ014>020-022>026-101>103-131400-
CENTRAL WYOMING

CITY           SKY/WX    TMP DP  RH WIND       PRES   REMARKS
BIG PINEY      NOT AVBL
PINEDALE       SUNNY     46  46 100 W6        30.48S
DUBOIS         FAIR      46  43  87 NW12      30.47S
LANDER         NOT AVBL
RIVERTON       NOT AVBL
CASPER         SUNNY     60  53  77 SW8       30.34S
DOUGLAS        SUNNY     58  54  86 CALM      30.33R

$$
WYZ021-027>030-104>119-131400-
SOUTHERN WYOMING

CITY           SKY/WX    TMP DP  RH WIND       PRES   REMARKS
EVANSTON       NOT AVBL
KEMMERER       SUNNY     54  46  76 N9        30.46R
FORT BRIDGER   FAIR      59  52  78 CALM      30.46S
ROCK SPRINGS   NOT AVBL
DIXON          FAIR      59  50  71 CALM      30.41S
RAWLINS        SUNNY     59  51  75 CALM      30.41S
SARATOGA       FAIR      55  50  82 CALM      30.44R
LARAMIE        SUNNY     54  52  93 S5        30.43S
CHEYENNE       SUNNY     61  56  83 W5        30.37R
TORRINGTON     SUNNY     63  61  93 N3        30.27R

$$


USA.gov is the U.S. government's official web portal to all federal, state and local government web resources and services.